Starlink 30980

operational
NORAD ID: 58476 Int'l Des: 2023-186 Owner: SPXS Country: US Constellation: starlink
LEOCIRCULAR

About Starlink 30980

Description loading...

Live Position

Loading 3D Globe...

Upcoming Passes

Altitude History

Altitude vs Time

uPlot chart will show altitude changes over time

Two-Line Element Set

1 58476U 23186D 25259.14753781 .00001366 00000-0 11618-3 0 9995
2 58476 43.0032 296.0529 0001559 274.2035 85.8629 15.02534927 99598
Epoch: Sep 16, 2025 • Age: 12 hours

Current Status

Altitude 559.5 km
Velocity 7.58 km/s
Sub-Earth Point -3.95°S, 111.25°W
Launch Date Dec 3, 2023
Age 1.7 years
Type internet

Technical Details

Classification Payload
Mass 730.00 kg
Dry Mass 700.00 kg
Total Mass 730.00 kg
Length 0.30 m
Diameter 4.10 m
Span 29.00 m
Shape Box + pan
Manufacturer SPXS
Bus Type Starlink V2M
Phase Status In Orbit
Owner/State SPXS/US

Large Constellations

Loading constellations...